PRISM (33493 NORAD) Tracking and Keplerian Element Data

This shows tracking and keplerian element data for the satellite.

Feedback or suggestion? Click here.




ElementValue
Catalog33493
NamePRISM
Epoch Orbit85685
Epoch Day286.14736131
Epoch Year2024
RAAN344.5667
Inclination98.1894
Eccentricity0.001024
Argument of Perigee199.9875
Mean Anonmoly160.0963
Mean Motion15.30308276
Decay Rate0.00080471
L11 33493U 09002B 24286.14736131 .00080471 00000-0 27173-2 0 9993
L22 33493 98.1894 344.5667 0010240 199.9875 160.0963 15.30308276856855



Live tracking and technical data element details for PRISM (NORAD 33493). PRISM can be tracked NOW for your location showing map with azimuth and elevation plus other details from your city location.







IsCatalogInMostPopularTable: catalog: 33493, numindb: 382
Update: records affected: 1



GetName: 33493 PRISM

Hit Count: updated at: Fri, 24 Jan 2025 22:41:37 GMT